Home > Weather > Belém > Past weeks

Flag for Brazil Past Weather in Belém, Pará, Brazil — Yesterday and Last 2 Weeks

Now
77 °F

Passing clouds.


Feels Like: 78 °F
Forecast: 74 / 92 °F
Wind: 3 mph from Northeast

Location: Belem Aeroporto

Current Time: Jul 26, 2016 at 11:03:07 PM

Latest Report: Jul 26, 2016 at 10:00 PM


Visibility: N/A

Pressure: 29.89 "Hg

Humidity: 83%

Dew Point: 72 °F

Location of BelémLocation

Past Weather in Belém — Graph

°F

Belém Temperature Yesterday

Maximum temperature yesterday: 90 °F (at 3:00 PM)
Minimum temperature yesterday: 75 °F (at 3:00 AM)
Average temperature yesterday: 81 °F

High & Low Weather Summary for the Past Weeks

 TemperatureHumidityPressure
High90 °F (Jul 12, 1:00 PM)94% (Jul 12, 4:00 AM)29.98 "Hg (Jul 12, 4:00 AM)
Low73 °F (Jul 18, 4:00 PM)49% (Jul 23, 3:00 PM)29.77 "Hg (Jul 15, 4:00 PM)
Average80 °F80%29.90 "Hg
* Reported Jul 11 9:00 PM — Jul 26 9:00 PM, Belém, Weather by CustomWeather, © 2016

Note: Actual official high and low records may vary slightly from our data, if they occured in-between our weather recording intervals... More about our weather records

Advertising

Belém Weather History for the Previous 24 Hours

Scroll right to see more
 ConditionsComfort  
Time TempWeatherWind HumidityBarometerVisibility
9:00 PM
Tue, Jul 26
77 °FPassing clouds.8 mph83%29.92 "HgN/A
8:00 PM77 °FPassing clouds.9 mph79%29.92 "HgN/A
7:00 PM77 °FPartly cloudy.7 mph79%29.89 "HgN/A
6:00 PM77 °FBroken clouds.8 mph83%29.86 "HgN/A
5:00 PM81 °FBroken clouds.7 mph84%29.86 "HgN/A
4:00 PM82 °FBroken clouds.5 mph70%29.83 "HgN/A
3:00 PM81 °FPartly sunny.7 mph70%29.86 "HgN/A
2:00 PM84 °FPartly sunny.9 mph74%29.86 "HgN/A
1:00 PM86 °FPartly sunny.7 mph70%29.89 "HgN/A
12:00 PM88 °FScattered clouds.9 mph62%29.92 "HgN/A
11:00 AM86 °FScattered clouds.9 mph66%29.92 "HgN/A
10:00 AM84 °FScattered clouds.12 mph74%29.95 "HgN/A
9:00 AM84 °FScattered clouds.6 mph74%29.92 "HgN/A
8:00 AM81 °FPartly sunny.6 mph84%29.92 "HgN/A
7:00 AM77 °FSunny.5 mph89%29.89 "Hg10 mi
6:00 AM77 °FClear.7 mph89%29.86 "Hg10 mi
5:00 AM77 °FClear.8 mph89%29.86 "Hg10 mi
4:00 AM77 °FClear.5 mph89%29.86 "Hg10 mi
3:00 AM77 °FClear.6 mph89%29.89 "Hg10 mi
2:00 AM79 °FClear.9 mph84%29.89 "Hg10 mi
1:00 AM79 °FClear.8 mph84%29.89 "Hg10 mi
12:00 AM79 °FClear.7 mph84%29.92 "Hg10 mi
11:00 PM
Mon, Jul 25
79 °FClear.7 mph79%29.92 "Hg10 mi
Weather by CustomWeather, © 2016

See weather overviewHow to use our weather pages